| time (UTC) | temp F | wind direction | speed MPH | gust MPH | rain 1hr in | rain 24hr in | rain mn in | humidity % | barometer mb |
| 20260506192503 | 61 | 203 | 1.0 | 4.0 | 0.02 | 0.65 | 0.63 | 96 | 1004.6 |
| 20260506192003 | 61 | 193 | 1.0 | 2.0 | 0.03 | 0.65 | 0.63 | 97 | 1004.6 |
| 20260506191503 | 61 | 193 | 1.0 | 4.0 | 0.03 | 0.65 | 0.63 | 97 | 1004.5 |
| 20260506191003 | 61 | 194 | 1.0 | 4.0 | 0.04 | 0.65 | 0.63 | 97 | 1004.4 |
| 20260506190503 | 61 | 187 | 1.0 | 4.0 | 0.05 | 0.65 | 0.63 | 97 | 1004.4 |
| 20260506190004 | 61 | 174 | 1.0 | 5.0 | 0.07 | 0.65 | 0.63 | 96 | 1004.5 |
| 20260506185503 | 61 | 182 | 1.0 | 5.0 | 0.08 | 0.65 | 0.63 | 96 | 1004.6 |
| 20260506185003 | 61 | 205 | 1.0 | 3.0 | 0.09 | 0.65 | 0.63 | 96 | 1004.6 |
| 20260506184503 | 61 | 206 | 1.0 | 2.0 | 0.09 | 0.65 | 0.63 | 96 | 1004.5 |
| 20260506184003 | 61 | 211 | 1.0 | 3.0 | 0.09 | 0.64 | 0.62 | 96 | 1004.6 |
| 20260506183503 | 61 | 235 | 1.0 | 4.0 | 0.09 | 0.64 | 0.62 | 97 | 1004.6 |
| 20260506183003 | 61 | 249 | 1.0 | 4.0 | 0.09 | 0.64 | 0.62 | 97 | 1004.6 |
| 20260506182503 | 60 | 231 | 1.0 | 4.0 | 0.09 | 0.63 | 0.61 | 96 | 1004.8 |
| 20260506182003 | 60 | 215 | 1.0 | 4.0 | 0.08 | 0.62 | 0.60 | 96 | 1004.8 |
| 20260506181503 | 60 | 197 | 0.0 | 2.0 | 0.09 | 0.62 | 0.60 | 96 | 1004.8 |
| 20260506181003 | 60 | 193 | 1.0 | 7.0 | 0.10 | 0.61 | 0.59 | 96 | 1004.8 |
| 20260506180503 | 60 | 191 | 1.0 | 7.0 | 0.09 | 0.60 | 0.58 | 96 | 1004.8 |
| 20260506180004 | 60 | 190 | 1.0 | 3.0 | 0.08 | 0.58 | 0.56 | 96 | 1004.8 |
| 20260506175503 | 60 | 185 | 1.0 | 4.0 | 0.08 | 0.57 | 0.55 | 96 | 1004.7 |
| 20260506175003 | 60 | 178 | 1.0 | 4.0 | 0.08 | 0.56 | 0.54 | 96 | 1004.7 |
| 20260506174714 | 60 | 174 | 1.0 | 4.0 | 0.08 | 0.56 | 0.54 | 96 | 1004.8 |
| 20260506174003 | 59 | 166 | 1.0 | 5.0 | 0.09 | 0.55 | 0.53 | 97 | 1004.8 |
| 20260506173503 | 59 | 134 | 1.0 | 5.0 | 0.10 | 0.55 | 0.53 | 96 | 1004.8 |
| 20260506173003 | 59 | 3 | 1.0 | 3.0 | 0.11 | 0.55 | 0.53 | 97 | 1004.8 |
| 20260506172503 | 58 | 360 | 0.0 | 2.0 | 0.11 | 0.54 | 0.52 | 96 | 1004.9 |
| 20260506172003 | 58 | 360 | 0.0 | 2.0 | 0.12 | 0.54 | 0.52 | 96 | 1005.0 |
| 20260506171503 | 57 | 360 | 0.0 | 1.0 | 0.12 | 0.53 | 0.51 | 96 | 1005.1 |
| 20260506171213 | 57 | 0 | 0.0 | 0.0 | 0.11 | 0.52 | 0.50 | 96 | 1005.1 |
| 20260506170503 | 57 | 360 | 0.0 | 1.0 | 0.11 | 0.51 | 0.49 | 96 | 1005.3 |
| 20260506170213 | 57 | 360 | 0.0 | 1.0 | 0.11 | 0.50 | 0.48 | 96 | 1005.3 |
| 20260506165713 | 57 | 360 | 0.0 | 1.0 | 0.11 | 0.49 | 0.48 | 96 | 1005.3 |
| 20260506165212 | 56 | 0 | 0.0 | 0.0 | 0.11 | 0.48 | 0.46 | 96 | 1005.5 |
| 20260506164503 | 56 | 0 | 0.0 | 0.0 | 0.11 | 0.47 | 0.45 | 96 | 1005.7 |
| 20260506164003 | 56 | 360 | 0.0 | 1.0 | 0.12 | 0.46 | 0.44 | 96 | 1005.7 |
| 20260506163503 | 56 | 360 | 0.0 | 1.0 | 0.11 | 0.45 | 0.43 | 96 | 1005.7 |
| 20260506163003 | 56 | 360 | 1.0 | 4.0 | 0.11 | 0.44 | 0.42 | 96 | 1005.7 |
| 20260506162503 | 56 | 14 | 2.0 | 6.0 | 0.11 | 0.43 | 0.41 | 96 | 1005.7 |
| 20260506162003 | 56 | 57 | 2.0 | 6.0 | 0.11 | 0.42 | 0.40 | 96 | 1005.6 |
| 20260506161503 | 56 | 98 | 0.0 | 4.0 | 0.11 | 0.41 | 0.39 | 95 | 1005.7 |
| 20260506161003 | 56 | 0 | 0.0 | 0.0 | 0.11 | 0.40 | 0.38 | 95 | 1006.0 |
| 20260506160503 | 56 | 0 | 0.0 | 0.0 | 0.11 | 0.40 | 0.38 | 95 | 1006.1 |
| 20260506160003 | 56 | 0 | 0.0 | 0.0 | 0.11 | 0.39 | 0.37 | 95 | 1006.2 |
| 20260506155503 | 56 | 0 | 0.0 | 0.0 | 0.11 | 0.38 | 0.36 | 95 | 1006.3 |
| 20260506155003 | 56 | 0 | 0.0 | 0.0 | 0.11 | 0.37 | 0.35 | 95 | 1006.3 |
| 20260506154503 | 55 | 0 | 0.0 | 0.0 | 0.11 | 0.36 | 0.34 | 95 | 1006.4 |
| 20260506154003 | 55 | 0 | 0.0 | 0.0 | 0.10 | 0.34 | 0.32 | 95 | 1006.5 |
| 20260506153713 | 55 | 0 | 0.0 | 0.0 | 0.10 | 0.34 | 0.32 | 95 | 1006.5 |
| 20260506153003 | 55 | 0 | 0.0 | 0.0 | 0.11 | 0.33 | 0.31 | 95 | 1006.5 |
| 20260506152503 | 55 | 0 | 0.0 | 0.0 | 0.11 | 0.32 | 0.30 | 95 | 1006.6 |
| 20260506152214 | 55 | 0 | 0.0 | 0.0 | 0.11 | 0.31 | 0.30 | 95 | 1006.7 |
| 20260506151503 | 55 | 0 | 0.0 | 0.0 | 0.11 | 0.30 | 0.28 | 95 | 1006.6 |
| 20260506151003 | 55 | 0 | 0.0 | 0.0 | 0.11 | 0.29 | 0.27 | 95 | 1006.7 |
| 20260506150503 | 55 | 0 | 0.0 | 0.0 | 0.11 | 0.29 | 0.27 | 95 | 1006.7 |
| 20260506150003 | 55 | 0 | 0.0 | 0.0 | 0.11 | 0.28 | 0.26 | 95 | 1006.7 |
| 20260506145713 | 55 | 0 | 0.0 | 0.0 | 0.11 | 0.28 | 0.26 | 95 | 1006.8 |
| 20260506145003 | 55 | 0 | 0.0 | 0.0 | 0.10 | 0.26 | 0.24 | 94 | 1007.1 |
| 20260506144503 | 55 | 0 | 0.0 | 0.0 | 0.09 | 0.25 | 0.23 | 94 | 1007.2 |
| 20260506144214 | 55 | 0 | 0.0 | 0.0 | 0.10 | 0.25 | 0.23 | 94 | 1007.1 |
| 20260506143503 | 55 | 0 | 0.0 | 0.0 | 0.09 | 0.23 | 0.21 | 94 | 1007.2 |
| 20260506143003 | 55 | 0 | 0.0 | 0.0 | 0.09 | 0.22 | 0.20 | 94 | 1007.3 |
| 20260506142503 | 55 | 0 | 0.0 | 0.0 | 0.09 | 0.21 | 0.19 | 94 | 1007.4 |
| 20260506142003 | 55 | 0 | 0.0 | 0.0 | 0.09 | 0.20 | 0.18 | 94 | 1007.4 |
| 20260506141503 | 55 | 0 | 0.0 | 0.0 | 0.08 | 0.19 | 0.17 | 94 | 1007.4 |
| 20260506141213 | 55 | 0 | 0.0 | 0.0 | 0.09 | 0.19 | 0.17 | 94 | 1007.5 |
| 20260506140503 | 55 | 0 | 0.0 | 0.0 | 0.09 | 0.18 | 0.16 | 94 | 1007.5 |
| 20260506140003 | 55 | 0 | 0.0 | 0.0 | 0.09 | 0.17 | 0.15 | 94 | 1007.6 |
| 20260506135503 | 55 | 0 | 0.0 | 0.0 | 0.10 | 0.17 | 0.15 | 94 | 1007.7 |
| 20260506135003 | 55 | 0 | 0.0 | 0.0 | 0.10 | 0.16 | 0.14 | 94 | 1007.4 |
| 20260506134712 | 55 | 0 | 0.0 | 0.0 | 0.10 | 0.16 | 0.14 | 94 | 1007.4 |
| 20260506134003 | 55 | 0 | 0.0 | 0.0 | 0.08 | 0.14 | 0.12 | 94 | 1007.3 |
| 20260506133712 | 55 | 0 | 0.0 | 0.0 | 0.09 | 0.14 | 0.12 | 94 | 1007.1 |
| 20260506133003 | 55 | 0 | 0.0 | 0.0 | 0.08 | 0.13 | 0.11 | 94 | 1007.2 |
| 20260506132503 | 55 | 0 | 0.0 | 0.0 | 0.08 | 0.12 | 0.10 | 94 | 1007.1 |
| 20260506132003 | 55 | 0 | 0.0 | 0.0 | 0.07 | 0.11 | 0.09 | 94 | 1007.0 |
| 20260506131503 | 55 | 0 | 0.0 | 0.0 | 0.07 | 0.11 | 0.09 | 93 | 1007.0 |
| 20260506131003 | 55 | 0 | 0.0 | 0.0 | 0.07 | 0.10 | 0.08 | 94 | 1007.2 |
| 20260506130503 | 55 | 0 | 0.0 | 0.0 | 0.06 | 0.09 | 0.07 | 93 | 1007.0 |
| 20260506130003 | 54 | 0 | 0.0 | 0.0 | 0.05 | 0.08 | 0.06 | 93 | 1007.5 |
| 20260506125503 | 54 | 0 | 0.0 | 0.0 | 0.04 | 0.07 | 0.05 | 93 | 1007.1 |
| 20260506125213 | 54 | 0 | 0.0 | 0.0 | 0.04 | 0.07 | 0.05 | 93 | 1007.2 |
| 20260506124503 | 54 | 0 | 0.0 | 0.0 | 0.03 | 0.06 | 0.04 | 93 | 1007.3 |
| 20260506124003 | 54 | 0 | 0.0 | 0.0 | 0.03 | 0.06 | 0.04 | 93 | 1007.4 |
| 20260506123714 | 54 | 0 | 0.0 | 0.0 | 0.02 | 0.05 | 0.03 | 93 | 1007.4 |
| 20260506123003 | 54 | 0 | 0.0 | 0.0 | 0.02 | 0.05 | 0.03 | 93 | 1007.7 |
| 20260506122503 | 54 | 0 | 0.0 | 0.0 | 0.02 | 0.04 | 0.02 | 93 | 1007.8 |
| 20260506122003 | 54 | 0 | 0.0 | 0.0 | 0.02 | 0.04 | 0.02 | 93 | 1007.8 |
| 20260506121503 | 54 | 0 | 0.0 | 0.0 | 0.02 | 0.04 | 0.02 | 93 | 1007.9 |
| 20260506121003 | 54 | 0 | 0.0 | 0.0 | 0.01 | 0.03 | 0.01 | 92 | 1008.0 |
| 20260506120503 | 54 | 0 | 0.0 | 0.0 | 0.01 | 0.03 | 0.01 | 93 | 1008.0 |
| 20260506120003 | 54 | 0 | 0.0 | 0.0 | 0.01 | 0.03 | 0.01 | 92 | 1008.0 |
| 20260506115503 | 54 | 0 | 0.0 | 0.0 | 0.01 | 0.03 | 0.01 | 92 | 1008.0 |
| 20260506115003 | 54 | 211 | 0.0 | 1.0 | 0.01 | 0.03 | 0.01 | 92 | 1007.7 |
| 20260506114714 | 54 | 211 | 0.0 | 1.0 | 0.01 | 0.03 | 0.01 | 92 | 1007.8 |
| 20260506114003 | 54 | 211 | 1.0 | 3.0 | 0.01 | 0.03 | 0.01 | 92 | 1007.6 |
| 20260506113503 | 54 | 211 | 1.0 | 3.0 | 0.01 | 0.03 | 0.01 | 92 | 1007.6 |
| 20260506113003 | 54 | 211 | 1.0 | 3.0 | 0.01 | 0.03 | 0.01 | 92 | 1007.4 |
| 20260506112503 | 54 | 211 | 0.0 | 3.0 | 0.00 | 0.02 | 0.00 | 92 | 1006.9 |
| 20260506112003 | 54 | 0 | 0.0 | 0.0 | 0.00 | 0.02 | 0.00 | 92 | 1007.2 |
| 20260506111503 | 54 | 195 | 0.0 | 1.0 | 0.00 | 0.02 | 0.00 | 92 | 1007.1 |
| 20260506111003 | 54 | 195 | 0.0 | 1.0 | 0.00 | 0.02 | 0.00 | 92 | 1007.3 |
| 20260506110503 | 54 | 195 | 0.0 | 2.0 | 0.00 | 0.02 | 0.00 | 91 | 1007.5 |
| 20260506110003 | 54 | 195 | 1.0 | 2.0 | 0.00 | 0.02 | 0.00 | 91 | 1007.5 |
| 20260506105503 | 54 | 195 | 1.0 | 2.0 | 0.00 | 0.02 | 0.00 | 91 | 1007.6 |
| 20260506105003 | 54 | 195 | 1.0 | 3.0 | 0.00 | 0.02 | 0.00 | 91 | 1007.6 |
| 20260506104503 | 54 | 195 | 1.0 | 3.0 | 0.00 | 0.02 | 0.00 | 91 | 1007.5 |
| 20260506104003 | 54 | 193 | 1.0 | 3.0 | 0.00 | 0.02 | 0.00 | 91 | 1007.3 |
| 20260506103713 | 54 | 192 | 1.0 | 3.0 | 0.00 | 0.02 | 0.00 | 91 | 1007.3 |
| 20260506103003 | 54 | 206 | 1.0 | 3.0 | 0.00 | 0.02 | 0.00 | 90 | 1007.3 |
| 20260506102503 | 54 | 225 | 1.0 | 3.0 | 0.00 | 0.02 | 0.00 | 90 | 1007.0 |
| 20260506102003 | 54 | 232 | 1.0 | 2.0 | 0.00 | 0.02 | 0.00 | 90 | 1006.9 |
| 20260506101503 | 54 | 232 | 1.0 | 2.0 | 0.00 | 0.02 | 0.00 | 90 | 1007.2 |
| 20260506101003 | 54 | 232 | 0.0 | 2.0 | 0.00 | 0.02 | 0.00 | 89 | 1007.2 |
| 20260506100503 | 54 | 232 | 0.0 | 2.0 | 0.00 | 0.02 | 0.00 | 89 | 1007.1 |
| 20260506100003 | 54 | 0 | 0.0 | 0.0 | 0.00 | 0.02 | 0.00 | 89 | 1006.9 |
| 20260506095503 | 54 | 0 | 0.0 | 0.0 | 0.00 | 0.02 | 0.00 | 89 | 1006.9 |
| 20260506095003 | 54 | 0 | 0.0 | 0.0 | 0.00 | 0.02 | 0.00 | 89 | 1006.9 |
| 20260506094503 | 54 | 232 | 0.0 | 1.0 | 0.00 | 0.02 | 0.00 | 89 | 1006.9 |
| 20260506094003 | 54 | 232 | 0.0 | 1.0 | 0.00 | 0.02 | 0.00 | 89 | 1006.9 |
| 20260506093503 | 54 | 232 | 0.0 | 1.0 | 0.00 | 0.02 | 0.00 | 88 | 1006.7 |
| 20260506093003 | 54 | 0 | 0.0 | 0.0 | 0.00 | 0.02 | 0.00 | 88 | 1006.8 |
| 20260506092503 | 54 | 232 | 0.0 | 1.0 | 0.00 | 0.02 | 0.00 | 88 | 1006.8 |
| 20260506092003 | 54 | 232 | 0.0 | 1.0 | 0.00 | 0.02 | 0.00 | 88 | 1006.9 |
| 20260506091503 | 54 | 0 | 0.0 | 0.0 | 0.00 | 0.02 | 0.00 | 88 | 1006.8 |
| 20260506091003 | 54 | 232 | 0.0 | 1.0 | 0.00 | 0.02 | 0.00 | 88 | 1007.0 |
| 20260506090503 | 54 | 232 | 0.0 | 1.0 | 0.00 | 0.02 | 0.00 | 87 | 1007.1 |
| 20260506090003 | 54 | 232 | 0.0 | 1.0 | 0.00 | 0.02 | 0.00 | 87 | 1007.0 |
| 20260506085503 | 54 | 232 | 0.0 | 2.0 | 0.00 | 0.02 | 0.00 | 87 | 1006.9 |
| 20260506085003 | 55 | 232 | 0.0 | 2.0 | 0.00 | 0.02 | 0.00 | 87 | 1007.1 |
| 20260506084503 | 55 | 0 | 0.0 | 0.0 | 0.00 | 0.02 | 0.00 | 86 | 1007.2 |
| 20260506084003 | 55 | 0 | 0.0 | 0.0 | 0.00 | 0.02 | 0.00 | 86 | 1007.3 |
| 20260506083503 | 55 | 0 | 0.0 | 0.0 | 0.00 | 0.02 | 0.00 | 86 | 1007.3 |
| 20260506083003 | 55 | 0 | 0.0 | 0.0 | 0.00 | 0.02 | 0.00 | 85 | 1007.2 |
| 20260506082503 | 55 | 0 | 0.0 | 0.0 | 0.00 | 0.02 | 0.00 | 85 | 1007.5 |
| 20260506082003 | 55 | 0 | 0.0 | 0.0 | 0.00 | 0.02 | 0.00 | 85 | 1007.5 |
| 20260506081503 | 55 | 232 | 0.0 | 1.0 | 0.00 | 0.02 | 0.00 | 86 | 1007.4 |
| 20260506081003 | 55 | 232 | 0.0 | 2.0 | 0.00 | 0.02 | 0.00 | 85 | 1007.4 |
| 20260506080503 | 55 | 232 | 0.0 | 2.0 | 0.00 | 0.02 | 0.00 | 85 | 1007.4 |
| 20260506073503 | 55 | 232 | 0.0 | 2.0 | 0.00 | 0.02 | 0.00 | 84 | 1008.0 |
| 20260506073003 | 56 | 232 | 0.0 | 1.0 | 0.00 | 0.02 | 0.00 | 84 | 1008.0 |
| 20260506072503 | 55 | 232 | 0.0 | 2.0 | 0.00 | 0.02 | 0.00 | 85 | 1007.8 |
| 20260506072003 | 56 | 232 | 1.0 | 2.0 | 0.00 | 0.02 | 0.00 | 85 | 1007.9 |
| 20260506071503 | 55 | 232 | 1.0 | 3.0 | 0.00 | 0.02 | 0.00 | 85 | 1007.9 |
| 20260506071003 | 55 | 219 | 1.0 | 3.0 | 0.00 | 0.02 | 0.00 | 85 | 1007.8 |
| 20260506070503 | 55 | 219 | 2.0 | 7.0 | 0.00 | 0.02 | 0.00 | 86 | 1007.9 |
| 20260506062503 | 56 | 238 | 2.0 | 5.0 | 0.00 | 0.02 | 0.00 | 88 | 1008.3 |
| 20260506062003 | 56 | 242 | 1.0 | 4.0 | 0.00 | 0.02 | 0.00 | 88 | 1008.3 |
| 20260506061503 | 56 | 241 | 1.0 | 4.0 | 0.00 | 0.02 | 0.00 | 88 | 1008.3 |
| 20260506061003 | 56 | 0 | 0.0 | 0.0 | 0.00 | 0.02 | 0.00 | 88 | 1008.4 |
| 20260506060503 | 56 | 0 | 0.0 | 0.0 | 0.00 | 0.02 | 0.00 | 88 | 1008.5 |
| 20260506051003 | 58 | 215 | 1.0 | 2.0 | 0.00 | 0.02 | 0.00 | 87 | 1008.7 |
| 20260506050503 | 58 | 215 | 1.0 | 2.0 | 0.00 | 0.02 | 0.00 | 86 | 1008.6 |
| 20260506044503 | 59 | 215 | 0.0 | 2.0 | 0.00 | 0.02 | 0.00 | 85 | 1008.7 |
| 20260506044003 | 59 | 118 | 1.0 | 4.0 | 0.00 | 0.02 | 0.00 | 84 | 1008.6 |
| 20260506043503 | 59 | 113 | 1.0 | 5.0 | 0.00 | 0.02 | 0.00 | 84 | 1008.6 |
| 20260506043003 | 59 | 250 | 2.0 | 6.0 | 0.00 | 0.02 | 0.00 | 83 | 1008.2 |
| 20260506042713 | 59 | 270 | 2.0 | 6.0 | 0.00 | 0.02 | 0.00 | 83 | 1008.7 |
| 20260506042003 | 60 | 271 | 2.0 | 5.0 | 0.00 | 0.02 | 0.00 | 83 | 1008.6 |
| 20260506041713 | 60 | 259 | 2.0 | 5.0 | 0.00 | 0.02 | 0.00 | 82 | 1008.4 |
| 20260506041003 | 60 | 289 | 2.0 | 8.0 | 0.00 | 0.02 | 0.00 | 82 | 1008.1 |
| 20260506040503 | 61 | 313 | 2.0 | 8.0 | 0.00 | 0.02 | 0.00 | 82 | 1008.3 |
| 20260506040004 | 61 | 287 | 2.0 | 6.0 | 0.00 | 0.02 | 0.00 | 82 | 1008.0 |
| 20260506035503 | 61 | 283 | 2.0 | 6.0 | 0.00 | 0.02 | 0.02 | 82 | 1008.6 |
| 20260506035003 | 61 | 306 | 2.0 | 8.0 | 0.00 | 0.02 | 0.02 | 82 | 1008.3 |
| 20260506034503 | 61 | 293 | 3.0 | 8.0 | 0.00 | 0.02 | 0.02 | 82 | 1008.3 |
| 20260506034003 | 61 | 284 | 3.0 | 8.0 | 0.00 | 0.02 | 0.02 | 83 | 1008.3 |
| 20260506033503 | 61 | 261 | 4.0 | 15.0 | 0.00 | 0.02 | 0.02 | 84 | 1008.3 |
| 20260506033003 | 61 | 257 | 3.0 | 15.0 | 0.00 | 0.02 | 0.02 | 85 | 1008.4 |
| 20260506032503 | 61 | 279 | 3.0 | 8.0 | 0.00 | 0.02 | 0.02 | 86 | 1008.2 |
| 20260506032003 | 61 | 271 | 3.0 | 8.0 | 0.00 | 0.02 | 0.02 | 87 | 1008.2 |
| 20260506031503 | 61 | 254 | 3.0 | 8.0 | 0.00 | 0.02 | 0.02 | 88 | 1008.3 |
| 20260506031003 | 61 | 265 | 2.0 | 8.0 | 0.00 | 0.02 | 0.02 | 89 | 1008.2 |
| 20260506030503 | 61 | 295 | 2.0 | 6.0 | 0.00 | 0.02 | 0.02 | 89 | 1008.0 |
| 20260506030003 | 61 | 291 | 1.0 | 6.0 | 0.00 | 0.02 | 0.02 | 89 | 1007.9 |
| 20260506025503 | 62 | 275 | 0.0 | 2.0 | 0.00 | 0.02 | 0.02 | 89 | 1007.8 |
| 20260506025003 | 62 | 275 | 1.0 | 3.0 | 0.00 | 0.02 | 0.02 | 89 | 1007.8 |
| 20260506024503 | 62 | 275 | 1.0 | 3.0 | 0.00 | 0.02 | 0.02 | 89 | 1007.7 |
| 20260506024003 | 62 | 279 | 1.0 | 4.0 | 0.01 | 0.02 | 0.02 | 88 | 1007.8 |
| 20260506023503 | 62 | 280 | 1.0 | 4.0 | 0.01 | 0.02 | 0.02 | 88 | 1007.7 |
| 20260506023003 | 62 | 0 | 0.0 | 0.0 | 0.02 | 0.02 | 0.02 | 87 | 1007.6 |
| 20260506022503 | 62 | 0 | 0.0 | 0.0 | 0.02 | 0.02 | 0.02 | 86 | 1007.6 |
| 20260506022003 | 63 | 0 | 0.0 | 0.0 | 0.02 | 0.02 | 0.02 | 86 | 1007.8 |
| 20260506021503 | 63 | 0 | 0.0 | 0.0 | 0.02 | 0.02 | 0.02 | 85 | 1007.8 |
| 20260506021003 | 63 | 0 | 0.0 | 0.0 | 0.02 | 0.02 | 0.02 | 85 | 1007.5 |
| 20260506020503 | 63 | 0 | 0.0 | 0.0 | 0.02 | 0.02 | 0.02 | 84 | 1007.7 |
| 20260506020003 | 63 | 0 | 0.0 | 0.0 | 0.02 | 0.02 | 0.02 | 84 | 1007.5 |
| 20260506015503 | 63 | 0 | 0.0 | 0.0 | 0.02 | 0.02 | 0.02 | 84 | 1007.4 |
| 20260506015003 | 64 | 0 | 0.0 | 0.0 | 0.02 | 0.02 | 0.02 | 83 | 1007.3 |
| 20260506014503 | 64 | 0 | 0.0 | 0.0 | 0.02 | 0.02 | 0.02 | 83 | 1007.4 |
| 20260506014003 | 64 | 0 | 0.0 | 0.0 | 0.01 | 0.01 | 0.01 | 82 | 1007.4 |
| 20260506013503 | 64 | 0 | 0.0 | 0.0 | 0.01 | 0.01 | 0.01 | 81 | 1007.1 |
| 20260506013003 | 64 | 0 | 0.0 | 0.0 | 0.00 | 0.00 | 0.00 | 81 | 1007.2 |
| 20260506012503 | 64 | 0 | 0.0 | 0.0 | 0.00 | 0.00 | 0.00 | 81 | 1006.9 |
| 20260506012003 | 64 | 0 | 0.0 | 0.0 | 0.00 | 0.00 | 0.00 | 80 | 1006.9 |
| 20260506011503 | 64 | 0 | 0.0 | 0.0 | 0.00 | 0.00 | 0.00 | 80 | 1006.7 |
| 20260506011003 | 64 | 0 | 0.0 | 0.0 | 0.00 | 0.00 | 0.00 | 80 | 1006.6 |
| 20260506010503 | 64 | 0 | 0.0 | 0.0 | 0.00 | 0.00 | 0.00 | 79 | 1006.6 |
| 20260506010003 | 64 | 0 | 0.0 | 0.0 | 0.00 | 0.00 | 0.00 | 79 | 1006.6 |
| 20260506005503 | 64 | 0 | 0.0 | 0.0 | 0.00 | 0.00 | 0.00 | 78 | 1006.6 |
| 20260506005003 | 64 | 0 | 0.0 | 0.0 | 0.00 | 0.00 | 0.00 | 78 | 1006.5 |
| 20260506004504 | 64 | 0 | 0.0 | 0.0 | 0.00 | 0.00 | 0.00 | 78 | 1006.6 |
| 20260506004003 | 64 | 0 | 0.0 | 0.0 | 0.00 | 0.00 | 0.00 | 78 | 1006.7 |
| 20260506003713 | 64 | 0 | 0.0 | 0.0 | 0.00 | 0.00 | 0.00 | 78 | 1006.5 |
| 20260506003003 | 64 | 0 | 0.0 | 0.0 | 0.00 | 0.00 | 0.00 | 77 | 1006.2 |
| 20260506002503 | 65 | 0 | 0.0 | 0.0 | 0.00 | 0.00 | 0.00 | 76 | 1006.2 |
| 20260506002003 | 65 | 0 | 0.0 | 0.0 | 0.00 | 0.00 | 0.00 | 76 | 1006.1 |
| 20260506001503 | 65 | 0 | 0.0 | 0.0 | 0.00 | 0.00 | 0.00 | 75 | 1006.1 |
| 20260506001212 | 65 | 113 | 0.0 | 2.0 | 0.00 | 0.00 | 0.00 | 75 | 1006.1 |
| 20260506000503 | 66 | 113 | 1.0 | 2.0 | 0.00 | 0.00 | 0.00 | 75 | 1006.0 |
| 20260506000212 | 66 | 113 | 1.0 | 2.0 | 0.00 | 0.00 | 0.00 | 74 | 1006.0 |
| 20260505235503 | 66 | 114 | 0.0 | 2.0 | 0.00 | 0.00 | 0.00 | 74 | 1005.9 |
| 20260505235003 | 66 | 200 | 0.0 | 1.0 | 0.00 | 0.00 | 0.00 | 73 | 1005.7 |
| 20260505234503 | 66 | 0 | 0.0 | 0.0 | 0.00 | 0.00 | 0.00 | 73 | 1005.6 |
| 20260505234003 | 66 | 0 | 0.0 | 0.0 | 0.00 | 0.00 | 0.00 | 73 | 1005.7 |
| 20260505233503 | 66 | 0 | 0.0 | 0.0 | 0.00 | 0.00 | 0.00 | 72 | 1005.7 |
| 20260505233003 | 66 | 0 | 0.0 | 0.0 | 0.00 | 0.00 | 0.00 | 72 | 1005.6 |
| 20260505232503 | 66 | 0 | 0.0 | 0.0 | 0.00 | 0.00 | 0.00 | 72 | 1005.6 |
| 20260505232003 | 66 | 0 | 0.0 | 0.0 | 0.00 | 0.00 | 0.00 | 71 | 1005.6 |
| 20260505231503 | 66 | 0 | 0.0 | 0.0 | 0.00 | 0.00 | 0.00 | 71 | 1005.5 |
| 20260505231003 | 66 | 0 | 0.0 | 0.0 | 0.00 | 0.00 | 0.00 | 71 | 1005.4 |
| 20260505230713 | 67 | 0 | 0.0 | 0.0 | 0.00 | 0.00 | 0.00 | 71 | 1005.3 |
| 20260505230214 | 67 | 0 | 0.0 | 0.0 | 0.00 | 0.00 | 0.00 | 70 | 1005.3 |
| 20260505225713 | 67 | 0 | 0.0 | 0.0 | 0.00 | 0.00 | 0.00 | 70 | 1005.3 |
| 20260505225214 | 67 | 208 | 0.0 | 2.0 | 0.00 | 0.00 | 0.00 | 70 | 1005.3 |
| 20260505224503 | 67 | 244 | 2.0 | 7.0 | 0.00 | 0.00 | 0.00 | 69 | 1005.2 |
| 20260505224003 | 67 | 279 | 2.0 | 7.0 | 0.00 | 0.00 | 0.00 | 69 | 1005.3 |
| 20260505223713 | 67 | 286 | 3.0 | 7.0 | 0.00 | 0.00 | 0.00 | 69 | 1005.3 |
| 20260505223003 | 67 | 266 | 3.0 | 8.0 | 0.00 | 0.00 | 0.00 | 69 | 1005.3 |
| 20260505222712 | 67 | 258 | 3.0 | 10.0 | 0.00 | 0.00 | 0.00 | 69 | 1005.3 |
| 20260505222003 | 67 | 274 | 5.0 | 12.0 | 0.00 | 0.00 | 0.00 | 68 | 1005.4 |
| 20260505221503 | 67 | 275 | 6.0 | 20.0 | 0.00 | 0.00 | 0.00 | 68 | 1005.4 |
| 20260505221003 | 68 | 274 | 7.0 | 20.0 | 0.00 | 0.00 | 0.00 | 67 | 1005.6 |
| 20260505220503 | 68 | 284 | 7.0 | 19.0 | 0.00 | 0.00 | 0.00 | 65 | 1005.5 |
| 20260505220213 | 68 | 288 | 6.0 | 19.0 | 0.00 | 0.00 | 0.00 | 65 | 1005.4 |
| 20260505215503 | 69 | 286 | 7.0 | 18.0 | 0.00 | 0.00 | 0.00 | 63 | 1005.3 |
| 20260505215003 | 69 | 275 | 6.0 | 18.0 | 0.00 | 0.00 | 0.00 | 62 | 1005.6 |
| 20260505214503 | 69 | 266 | 5.0 | 16.0 | 0.00 | 0.00 | 0.00 | 61 | 1005.7 |
| 20260505214003 | 69 | 255 | 5.0 | 16.0 | 0.00 | 0.00 | 0.00 | 61 | 1005.6 |
| 20260505213712 | 70 | 267 | 5.0 | 16.0 | 0.00 | 0.00 | 0.00 | 60 | 1005.3 |
| 20260505213003 | 70 | 299 | 4.0 | 12.0 | 0.00 | 0.00 | 0.00 | 59 | 1005.3 |
| 20260505212712 | 70 | 308 | 4.0 | 10.0 | 0.00 | 0.00 | 0.00 | 58 | 1004.9 |
| 20260505212003 | 71 | 297 | 4.0 | 11.0 | 0.00 | 0.00 | 0.00 | 57 | 1004.5 |
| 20260505211503 | 72 | 288 | 6.0 | 20.0 | 0.00 | 0.00 | 0.00 | 57 | 1004.7 |
| 20260505211003 | 72 | 286 | 7.0 | 20.0 | 0.00 | 0.00 | 0.00 | 55 | 1004.7 |
| 20260505210503 | 73 | 290 | 5.0 | 15.0 | 0.00 | 0.00 | 0.00 | 56 | 1004.8 |
| 20260505210003 | 73 | 300 | 3.0 | 13.0 | 0.00 | 0.00 | 0.00 | 57 | 1004.2 |
| 20260505205503 | 74 | 307 | 2.0 | 4.0 | 0.00 | 0.00 | 0.00 | 60 | 1004.0 |
| 20260505205003 | 74 | 300 | 2.0 | 4.0 | 0.00 | 0.00 | 0.00 | 59 | 1003.6 |
| 20260505204714 | 73 | 299 | 1.0 | 4.0 | 0.00 | 0.00 | 0.00 | 59 | 1003.5 |
| 20260505204003 | 73 | 339 | 1.0 | 3.0 | 0.00 | 0.00 | 0.00 | 61 | 1003.3 |
| 20260505203714 | 73 | 339 | 1.0 | 3.0 | 0.00 | 0.00 | 0.00 | 60 | 1003.2 |
| 20260505203003 | 73 | 330 | 1.0 | 3.0 | 0.00 | 0.00 | 0.00 | 61 | 1003.1 |
| 20260505202503 | 73 | 314 | 1.0 | 3.0 | 0.00 | 0.00 | 0.00 | 60 | 1003.1 |
| 20260505202003 | 74 | 313 | 2.0 | 7.0 | 0.00 | 0.00 | 0.00 | 59 | 1003.1 |
| 20260505201503 | 74 | 317 | 3.0 | 7.0 | 0.00 | 0.00 | 0.00 | 58 | 1003.3 |
| 20260505201003 | 75 | 315 | 2.0 | 4.0 | 0.00 | 0.00 | 0.00 | 59 | 1003.3 |
| 20260505200503 | 76 | 262 | 3.0 | 11.0 | 0.00 | 0.00 | 0.00 | 54 | 1003.2 |
| 20260505200003 | 78 | 289 | 4.0 | 11.0 | 0.00 | 0.00 | 0.00 | 47 | 1003.3 |
| 20260505195503 | 79 | 300 | 6.0 | 12.0 | 0.00 | 0.00 | 0.00 | 43 | 1003.4 |
| 20260505195003 | 81 | 275 | 6.0 | 19.0 | 0.00 | 0.00 | 0.00 | 39 | 1003.5 |
| 20260505194503 | 82 | 250 | 6.0 | 19.0 | 0.00 | 0.00 | 0.00 | 31 | 1003.2 |
| 20260505194003 | 83 | 222 | 5.0 | 15.0 | 0.00 | 0.00 | 0.00 | 31 | 1002.9 |
| 20260505193503 | 83 | 213 | 5.0 | 15.0 | 0.00 | 0.00 | 0.00 | 31 | 1002.7 |
| 20260505193003 | 84 | 234 | 5.0 | 15.0 | 0.00 | 0.00 | 0.00 | 31 | 1002.7 |